Location: Pouilly
(47.2624°N, 4.5558°E)
Time: 09:01:12
(UTC+00:00)

Cosmos 1400 Rocket - Pass Details

Date: 07 June 2020
Orbit: 522 x 568 km, 81.2° (Epoch: 14 July)

Event Time Altitude Azimuth Distance (km) Brightness Sun altitude
Rises 01:37:01 0° 339° (NNW) 2,781 7.1 -15.2°
Reaches altitude 10° 01:39:23 10° 329° (NNW) 1,878 5.9 -15.0°
Maximum altitude 01:43:01 30° 268° (W) 1,026 3.9 -14.7°
Enters shadow 01:44:30 24° 231° (SW) 1,204 4.0 -14.6°
